owner,sensor,date,latitude,longitude,vertical_datum,direction_of_sea_water_velocity,sea_water_speed,upward_sea_water_velocity,qcFlag 
TABS,ioos:station:wmo:42051:1,2017-05-01T00:00:00Z,29.6350,-93.6417,2.0,224.9996843,23.99920415,-99999.0,'11111222,11111222,99999999' 
TABS,ioos:station:wmo:42051:1,2017-05-01T00:30:00Z,29.6350,-93.6417,2.0,266.9941,32.99538453,-99999.0,'11111222,11111222,99999999' 
TABS,ioos:station:wmo:42051:1,2017-05-01T01:00:00Z,29.6350,-93.6417,2.0,257.9676995,7.00386322,-99999.0,'11133222,11111222,99999999' 
TABS,ioos:station:wmo:42051:1,2017-05-01T01:30:00Z,29.6350,-93.6417,2.0,263.9998698,126.0001786,-99999.0,'11111222,11111222,99999999' 
TABS,ioos:station:wmo:42051:1,2017-05-01T02:00:00Z,29.6350,-93.6417,2.0,224.9996843,23.99920415,-99999.0,'11111222,11111222,99999999' 
TABS,ioos:station:wmo:42051:1,2017-05-01T02:30:00Z,29.6350,-93.6417,2.0,204.0010144,20.99533281,-99999.0,'11111222,11111222,99999999' 
TABS,ioos:station:wmo:42051:1,2017-05-01T03:00:00Z,29.6350,-93.6417,2.0,197.0210209,14.99692302,-99999.0,'11111222,11111222,99999999' 
TABS,ioos:station:wmo:42051:1,2017-05-01T03:30:00Z,29.6350,-93.6417,2.0,205.988426,12.00382023,-99999.0,'11111222,11111222,99999999' 
TABS,ioos:station:wmo:42051:1,2017-05-01T04:00:00Z,29.6350,-93.6417,2.0,211.9949786,12.00341618,-99999.0,'11111222,11111222,99999999' 
TABS,ioos:station:wmo:42051:1,2017-05-01T04:30:00Z,29.6350,-93.6417,2.0,195.0003945,15.99506486,-99999.0,'11111222,11111222,99999999' 
TABS,ioos:station:wmo:42051:1,2017-05-01T05:00:00Z,29.6350,-93.6417,2.0,179.9997895,10.0,-99999.0,'11111222,11111222,99999999' 
TABS,ioos:station:wmo:42051:1,2017-05-01T05:30:00Z,29.6350,-93.6417,2.0,168.0029183,8.996493761,-99999.0,'11133222,11111222,99999999' 
TABS,ioos:station:wmo:42051:1,2017-05-01T06:00:00Z,29.6350,-93.6417,2.0,151.9610765,7.998824914,-99999.0,'11133222,11111222,99999999' 
TABS,ioos:station:wmo:42051:1,2017-05-01T06:30:00Z,29.6350,-93.6417,2.0,134.9998948,7.000357134,-99999.0,'11133222,11111222,99999999' 
TABS,ioos:station:wmo:42051:1,2017-05-01T07:00:00Z,29.6350,-93.6417,2.0,90.0,5.0,-99999.0,'11133222,11111222,99999999' 
TABS,ioos:station:wmo:42051:1,2017-05-01T07:30:00Z,29.6350,-93.6417,2.0,56.00975939,8.997360724,-99999.0,'11133222,11111222,99999999' 
TABS,ioos:station:wmo:42051:1,2017-05-01T08:00:00Z,29.6350,-93.6417,2.0,72.00798926,9.00011111,-99999.0,'11133222,11111222,99999999' 
TABS,ioos:station:wmo:42051:1,2017-05-01T08:30:00Z,29.6350,-93.6417,2.0,83.976021,8.004198898,-99999.0,'11133222,11111222,99999999' 
TABS,ioos:station:wmo:42051:1,2017-05-01T09:00:00Z,29.6350,-93.6417,2.0,161.9275097,2.997899264,-99999.0,'11133222,11111222,99999999' 
TABS,ioos:station:wmo:42051:1,2017-05-01T09:30:00Z,29.6350,-93.6417,2.0,0.000210459,2.0,-99999.0,'11133222,11111222,99999999' 
TABS,ioos:station:wmo:42051:1,2017-05-01T10:00:00Z,29.6350,-93.6417,2.0,179.9997895,1.0,-99999.0,'11133222,11111222,99999999' 
TABS,ioos:station:wmo:42051:1,2017-05-01T10:30:00Z,29.6350,-93.6417,2.0,265.9979287,141.0037631,-99999.0,'11111222,11111222,99999999' 
TABS,ioos:station:wmo:42051:1,2017-05-01T11:00:00Z,29.6350,-93.6417,2.0,270.0004209,1.0,-99999.0,'11133222,11111222,99999999' 
TABS,ioos:station:wmo:42051:1,2017-05-01T11:30:00Z,29.6350,-93.6417,2.0,192.0064698,4.99936996,-99999.0,'11133222,11111222,99999999' 
TABS,ioos:station:wmo:42051:1,2017-05-01T12:00:00Z,29.6350,-93.6417,2.0,232.9960335,5.998016339,-99999.0,'11133222,11111222,99999999' 
TABS,ioos:station:wmo:42051:1,2017-05-01T12:30:00Z,29.6350,-93.6417,2.0,224.9996843,5.996265504,-99999.0,'11133222,11111222,99999999' 
TABS,ioos:station:wmo:42051:1,2017-05-01T13:00:00Z,29.6350,-93.6417,2.0,170.9924563,6.004040306,-99999.0,'11133222,11111222,99999999' 
TABS,ioos:station:wmo:42051:1,2017-05-01T13:30:00Z,29.6350,-93.6417,2.0,179.9997895,5.0,-99999.0,'11133222,11111222,99999999' 
TABS,ioos:station:wmo:42051:1,2017-05-01T14:00:00Z,29.6350,-93.6417,2.0,195.0788883,3.997649309,-99999.0,'11133222,11111222,99999999' 
TABS,ioos:station:wmo:42051:1,2017-05-01T14:30:00Z,29.6350,-93.6417,2.0,199.9746922,6.001008249,-99999.0,'11133222,11111222,99999999' 
TABS,ioos:station:wmo:42051:1,2017-05-01T15:00:00Z,29.6350,-93.6417,2.0,272.9931305,18.00455498,-99999.0,'11111222,11111222,99999999' 
TABS,ioos:station:wmo:42051:1,2017-05-01T15:30:00Z,29.6350,-93.6417,2.0,255.0038973,30.99554807,-99999.0,'11111222,11111222,99999999' 
TABS,ioos:station:wmo:42051:1,2017-05-01T16:00:00Z,29.6350,-93.6417,2.0,252.04766,6.002216257,-99999.0,'11133222,11111222,99999999' 
TABS,ioos:station:wmo:42051:1,2017-05-01T16:30:00Z,29.6350,-93.6417,2.0,224.9996843,1.004091629,-99999.0,'11133222,11111222,99999999' 
TABS,ioos:station:wmo:42051:1,2017-05-01T17:00:00Z,29.6350,-93.6417,2.0,214.9213258,4.000312488,-99999.0,'11133222,11111222,99999999' 
TABS,ioos:station:wmo:42051:1,2017-05-01T17:30:00Z,29.6350,-93.6417,2.0,79.97211468,4.996328652,-99999.0,'11133222,11111222,99999999' 
TABS,ioos:station:wmo:42051:1,2017-05-01T18:00:00Z,29.6350,-93.6417,2.0,69.02833848,5.001299831,-99999.0,'11133222,11111222,99999999' 
TABS,ioos:station:wmo:42051:1,2017-05-01T18:30:00Z,29.6350,-93.6417,2.0,45.00010523,8.004448763,-99999.0,'11133222,11111222,99999999' 
TABS,ioos:station:wmo:42051:1,2017-05-01T19:00:00Z,29.6350,-93.6417,2.0,7.978316318,7.997405829,-99999.0,'11133222,11111222,99999999' 
TABS,ioos:station:wmo:42051:1,2017-05-01T19:30:00Z,29.6350,-93.6417,2.0,27.02059496,9.002694041,-99999.0,'11133222,11111222,99999999' 
TABS,ioos:station:wmo:42051:1,2017-05-01T20:00:00Z,29.6350,-93.6417,2.0,35.05250237,6.999521412,-99999.0,'11133222,11111222,99999999' 
TABS,ioos:station:wmo:42051:1,2017-05-01T20:30:00Z,29.6350,-93.6417,2.0,35.05250237,6.999521412,-99999.0,'11133222,11111222,99999999' 
TABS,ioos:station:wmo:42051:1,2017-05-01T21:00:00Z,29.6350,-93.6417,2.0,30.00086808,9.999779998,-99999.0,'11133222,11111222,99999999' 
TABS,ioos:station:wmo:42051:1,2017-05-01T21:30:00Z,29.6350,-93.6417,2.0,45.00010523,15.99475539,-99999.0,'11111222,11111222,99999999' 
TABS,ioos:station:wmo:42051:1,2017-05-01T22:00:00Z,29.6350,-93.6417,2.0,40.97429048,13.99990357,-99999.0,'11111222,11111222,99999999' 
TABS,ioos:station:wmo:42051:1,2017-05-01T22:30:00Z,29.6350,-93.6417,2.0,45.00010523,9.998489886,-99999.0,'11133222,11111222,99999999' 
TABS,ioos:station:wmo:42051:1,2017-05-01T23:00:00Z,29.6350,-93.6417,2.0,30.00086808,9.999779998,-99999.0,'11133222,11111222,99999999' 
TABS,ioos:station:wmo:42051:1,2017-05-01T23:30:00Z,29.6350,-93.6417,2.0,21.03310144,8.999605547,-99999.0,'11133222,11111222,99999999' 
TABS,ioos:station:wmo:42051:1,2017-05-02T00:00:00Z,29.6350,-93.6417,2.0,350.9928772,6.004040306,-99999.0,'11133222,11111222,99999999' 
TABS,ioos:station:wmo:42051:1,2017-05-02T00:30:00Z,29.6350,-93.6417,2.0,0.000210459,6.0,-99999.0,'11133222,11111222,99999999' 
TABS,ioos:station:wmo:42051:1,2017-05-02T01:00:00Z,29.6350,-93.6417,2.0,351.0005147,10.99536266,-99999.0,'11111222,11111222,99999999' 
TABS,ioos:station:wmo:42051:1,2017-05-02T01:30:00Z,29.6350,-93.6417,2.0,340.9917637,12.00460745,-99999.0,'11111222,11111222,99999999' 
TABS,ioos:station:wmo:42051:1,2017-05-02T02:00:00Z,29.6350,-93.6417,2.0,320.0147048,11.0022634,-99999.0,'11111222,11111222,99999999' 
TABS,ioos:station:wmo:42051:1,2017-05-02T02:30:00Z,29.6350,-93.6417,2.0,310.9745009,13.99990357,-99999.0,'11111222,11111222,99999999' 
TABS,ioos:station:wmo:42051:1,2017-05-02T03:00:00Z,29.6350,-93.6417,2.0,310.9976672,16.00551155,-99999.0,'11111222,11111222,99999999' 
TABS,ioos:station:wmo:42051:1,2017-05-02T03:30:00Z,29.6350,-93.6417,2.0,325.9830353,16.99906468,-99999.0,'11111222,11111222,99999999' 
TABS,ioos:station:wmo:42051:1,2017-05-02T04:00:00Z,29.6350,-93.6417,2.0,331.9951996,20.99883806,-99999.0,'11111222,11111222,99999999' 
TABS,ioos:station:wmo:42051:1,2017-05-02T05:30:00Z,29.6350,-93.6417,2.0,341.9936138,21.99741803,-99999.0,'11111222,11111222,99999999' 
TABS,ioos:station:wmo:42051:1,2017-05-02T06:00:00Z,29.6350,-93.6417,2.0,351.0045885,22.00060226,-99999.0,'11111222,11111222,99999999' 
TABS,ioos:station:wmo:42051:1,2017-05-02T06:30:00Z,29.6350,-93.6417,2.0,358.9908202,21.00325927,-99999.0,'11111222,11111222,99999999' 
TABS,ioos:station:wmo:42051:1,2017-05-02T07:00:00Z,29.6350,-93.6417,2.0,0.000210459,22.0,-99999.0,'11111222,11111222,99999999' 
TABS,ioos:station:wmo:42051:1,2017-05-02T07:30:00Z,29.6350,-93.6417,2.0,237.000671,194.9968502,-99999.0,'11144222,11111222,99999999' 
TABS,ioos:station:wmo:42051:1,2017-05-02T08:00:00Z,29.6350,-93.6417,2.0,11.00236724,23.00279331,-99999.0,'11111222,11111222,99999999' 
TABS,ioos:station:wmo:42051:1,2017-05-02T08:30:00Z,29.6350,-93.6417,2.0,8.995832371,22.00060226,-99999.0,'11111222,11111222,99999999' 
TABS,ioos:station:wmo:42051:1,2017-05-02T09:00:00Z,29.6350,-93.6417,2.0,11.00372558,22.00454499,-99999.0,'11111222,11111222,99999999' 
TABS,ioos:station:wmo:42051:1,2017-05-02T09:30:00Z,29.6350,-93.6417,2.0,8.991625188,19.00352073,-99999.0,'11111222,11111222,99999999' 
TABS,ioos:station:wmo:42051:1,2017-05-02T10:00:00Z,29.6350,-93.6417,2.0,18.00489744,24.00552645,-99999.0,'11111222,11111222,99999999' 
TABS,ioos:station:wmo:42051:1,2017-05-02T10:30:00Z,29.6350,-93.6417,2.0,16.98570063,23.00344322,-99999.0,'11111222,11111222,99999999' 
TABS,ioos:station:wmo:42051:1,2017-05-02T11:00:00Z,29.6350,-93.6417,2.0,27.00080202,19.99997,-99999.0,'11111222,11111222,99999999' 
TABS,ioos:station:wmo:42051:1,2017-05-02T11:30:00Z,29.6350,-93.6417,2.0,36.007546,19.00015263,-99999.0,'11111222,11111222,99999999' 
TABS,ioos:station:wmo:42051:1,2017-05-02T12:00:00Z,29.6350,-93.6417,2.0,38.00999325,18.99976052,-99999.0,'11111222,11111222,99999999' 
TABS,ioos:station:wmo:42051:1,2017-05-02T12:30:00Z,29.6350,-93.6417,2.0,44.00070689,15.00001667,-99999.0,'11111222,11111222,99999999' 
TABS,ioos:station:wmo:42051:1,2017-05-02T13:00:00Z,29.6350,-93.6417,2.0,40.97429048,13.99990357,-99999.0,'11111222,11111222,99999999' 
TABS,ioos:station:wmo:42051:1,2017-05-02T13:30:00Z,29.6350,-93.6417,2.0,50.00494375,11.99584095,-99999.0,'11111222,11111222,99999999' 
TABS,ioos:station:wmo:42051:1,2017-05-02T14:00:00Z,29.6350,-93.6417,2.0,39.04765971,6.000333324,-99999.0,'11133222,11111222,99999999' 
TABS,ioos:station:wmo:42051:1,2017-05-02T14:30:00Z,29.6350,-93.6417,2.0,27.07789854,3.998249617,-99999.0,'11133222,11111222,99999999' 
TABS,ioos:station:wmo:42051:1,2017-05-02T15:00:00Z,29.6350,-93.6417,2.0,341.9279306,2.997899264,-99999.0,'11133222,11111222,99999999' 
TABS,ioos:station:wmo:42051:1,2017-05-02T15:30:00Z,29.6350,-93.6417,2.0,315.0003157,1.004091629,-99999.0,'11133222,11111222,99999999' 
TABS,ioos:station:wmo:42051:1,2017-05-02T16:00:00Z,29.6350,-93.6417,2.0,304.9219571,4.000312488,-99999.0,'11133222,11111222,99999999' 
TABS,ioos:station:wmo:42051:1,2017-05-02T16:30:00Z,29.6350,-93.6417,2.0,315.0003157,1.004091629,-99999.0,'11133222,11111222,99999999' 
TABS,ioos:station:wmo:42051:1,2017-05-02T17:00:00Z,29.6350,-93.6417,2.0,315.0003157,2.998132752,-99999.0,'11133222,11111222,99999999' 
TABS,ioos:station:wmo:42051:1,2017-05-02T17:30:00Z,29.6350,-93.6417,2.0,270.0004209,3.0,-99999.0,'11133222,11111222,99999999' 
TABS,ioos:station:wmo:42051:1,2017-05-02T18:00:00Z,29.6350,-93.6417,2.0,277.9785268,7.997405829,-99999.0,'11133222,11111222,99999999' 
TABS,ioos:station:wmo:42051:1,2017-05-02T18:30:00Z,29.6350,-93.6417,2.0,270.0004209,10.0,-99999.0,'11111222,11111222,99999999' 
TABS,ioos:station:wmo:42051:1,2017-05-02T19:00:00Z,29.6350,-93.6417,2.0,290.0098287,13.00503364,-99999.0,'11111222,11111222,99999999' 
TABS,ioos:station:wmo:42051:1,2017-05-02T19:30:00Z,29.6350,-93.6417,2.0,306.0004465,16.99595834,-99999.0,'11111222,11111222,99999999' 
TABS,ioos:station:wmo:42051:1,2017-05-02T20:00:00Z,29.6350,-93.6417,2.0,307.9997363,21.00208085,-99999.0,'11111222,11111222,99999999' 
TABS,ioos:station:wmo:42051:1,2017-05-02T20:30:00Z,29.6350,-93.6417,2.0,320.9969942,30.99948709,-99999.0,'11111222,11111222,99999999' 
TABS,ioos:station:wmo:42051:1,2017-05-02T21:00:00Z,29.6350,-93.6417,2.0,320.0039759,29.99664648,-99999.0,'11111222,11111222,99999999' 
TABS,ioos:station:wmo:42051:1,2017-05-02T21:30:00Z,29.6350,-93.6417,2.0,320.9969942,30.99948709,-99999.0,'11111222,11111222,99999999' 
TABS,ioos:station:wmo:42051:1,2017-05-02T22:00:00Z,29.6350,-93.6417,2.0,319.9982461,28.0018303,-99999.0,'11111222,11111222,99999999' 
TABS,ioos:station:wmo:42051:1,2017-05-02T22:30:00Z,29.6350,-93.6417,2.0,315.0003157,29.00552016,-99999.0,'11111222,11111222,99999999' 
TABS,ioos:station:wmo:42051:1,2017-05-02T23:00:00Z,29.6350,-93.6417,2.0,308.0049806,31.00408038,-99999.0,'11111222,11111222,99999999' 
TABS,ioos:station:wmo:42051:1,2017-05-02T23:30:00Z,29.6350,-93.6417,2.0,317.0039453,35.99960278,-99999.0,'11111222,11111222,99999999' 
TABS,ioos:station:wmo:42051:1,2017-05-03T00:00:00Z,29.6350,-93.6417,2.0,323.0072197,40.00209245,-99999.0,'11111222,11111222,99999999' 
TABS,ioos:station:wmo:42051:1,2017-05-03T00:30:00Z,29.6350,-93.6417,2.0,324.0038105,45.00322877,-99999.0,'11111222,11111222,99999999' 
TABS,ioos:station:wmo:42051:1,2017-05-03T01:00:00Z,29.6350,-93.6417,2.0,321.0033898,43.00162788,-99999.0,'11111222,11111222,99999999' 
TABS,ioos:station:wmo:42051:1,2017-05-03T01:30:00Z,29.6350,-93.6417,2.0,321.0033898,43.00162788,-99999.0,'11111222,11111222,99999999' 
TABS,ioos:station:wmo:42051:1,2017-05-03T02:00:00Z,29.6350,-93.6417,2.0,320.0068551,40.99890974,-99999.0,'11111222,11111222,99999999' 
TABS,ioos:station:wmo:42051:1,2017-05-03T02:30:00Z,29.6350,-93.6417,2.0,277.9937728,32.00091561,-99999.0,'11111222,11111222,99999999' 
TABS,ioos:station:wmo:42051:1,2017-05-03T03:00:00Z,29.6350,-93.6417,2.0,315.0003157,35.00178567,-99999.0,'11111222,11111222,99999999' 
TABS,ioos:station:wmo:42051:1,2017-05-03T03:30:00Z,29.6350,-93.6417,2.0,315.0003157,37.99991842,-99999.0,'11111222,11111222,99999999' 
TABS,ioos:station:wmo:42051:1,2017-05-03T04:00:00Z,29.6350,-93.6417,2.0,305.0027884,27.00434224,-99999.0,'11111222,11111222,99999999' 
TABS,ioos:station:wmo:42051:1,2017-05-03T04:30:00Z,29.6350,-93.6417,2.0,290.0059184,23.99805409,-99999.0,'11111222,11111222,99999999' 
TABS,ioos:station:wmo:42051:1,2017-05-03T05:00:00Z,29.6350,-93.6417,2.0,281.0013323,24.00104164,-99999.0,'11111222,11111222,99999999' 
TABS,ioos:station:wmo:42051:1,2017-05-03T05:30:00Z,29.6350,-93.6417,2.0,278.0027446,26.00320942,-99999.0,'11111222,11111222,99999999' 
TABS,ioos:station:wmo:42051:1,2017-05-03T06:00:00Z,29.6350,-93.6417,2.0,263.9952005,26.00265371,-99999.0,'11111222,11111222,99999999' 
TABS,ioos:station:wmo:42051:1,2017-05-03T06:30:00Z,29.6350,-93.6417,2.0,273.0031628,20.99883092,-99999.0,'11111222,11111222,99999999' 
TABS,ioos:station:wmo:42051:1,2017-05-03T07:00:00Z,29.6350,-93.6417,2.0,264.006184,24.99663377,-99999.0,'11111222,11111222,99999999' 
TABS,ioos:station:wmo:42051:1,2017-05-03T07:30:00Z,29.6350,-93.6417,2.0,262.9975606,26.00394201,-99999.0,'11111222,11111222,99999999' 
TABS,ioos:station:wmo:42051:1,2017-05-03T08:00:00Z,29.6350,-93.6417,2.0,269.0080227,26.00389394,-99999.0,'11111222,11111222,99999999' 
TABS,ioos:station:wmo:42051:1,2017-05-03T08:30:00Z,29.6350,-93.6417,2.0,269.0080227,26.00389394,-99999.0,'11111222,11111222,99999999' 
TABS,ioos:station:wmo:42051:1,2017-05-03T09:00:00Z,29.6350,-93.6417,2.0,258.0000509,29.00375493,-99999.0,'11111222,11111222,99999999' 
TABS,ioos:station:wmo:42051:1,2017-05-03T09:30:00Z,29.6350,-93.6417,2.0,266.9998475,30.00110831,-99999.0,'11111222,11111222,99999999' 
TABS,ioos:station:wmo:42051:1,2017-05-03T10:00:00Z,29.6350,-93.6417,2.0,266.0051311,30.00288319,-99999.0,'11111222,11111222,99999999' 
TABS,ioos:station:wmo:42051:1,2017-05-03T10:30:00Z,29.6350,-93.6417,2.0,260.0120444,26.00408045,-99999.0,'11111222,11111222,99999999' 
TABS,ioos:station:wmo:42051:1,2017-05-03T11:00:00Z,29.6350,-93.6417,2.0,261.0014463,28.00464247,-99999.0,'11111222,11111222,99999999' 
TABS,ioos:station:wmo:42051:1,2017-05-03T11:30:00Z,29.6350,-93.6417,2.0,254.9905622,28.99931378,-99999.0,'11111222,11111222,99999999' 
TABS,ioos:station:wmo:42051:1,2017-05-03T12:00:00Z,29.6350,-93.6417,2.0,261.0014463,28.00464247,-99999.0,'11111222,11111222,99999999' 
TABS,ioos:station:wmo:42051:1,2017-05-03T12:30:00Z,29.6350,-93.6417,2.0,266.0054669,29.0004362,-99999.0,'11111222,11111222,99999999' 
TABS,ioos:station:wmo:42051:1,2017-05-03T13:00:00Z,29.6350,-93.6417,2.0,274.9973711,30.99781283,-99999.0,'11111222,11111222,99999999' 
TABS,ioos:station:wmo:42051:1,2017-05-03T13:30:00Z,29.6350,-93.6417,2.0,275.0218702,11.99604101,-99999.0,'11111222,11111222,99999999' 
TABS,ioos:station:wmo:42051:1,2017-05-03T14:00:00Z,29.6350,-93.6417,2.0,266.995106,28.99986207,-99999.0,'11111222,11111222,99999999' 
TABS,ioos:station:wmo:42051:1,2017-05-03T14:30:00Z,29.6350,-93.6417,2.0,266.9964334,25.00433962,-99999.0,'11111222,11111222,99999999' 
TABS,ioos:station:wmo:42051:1,2017-05-03T15:00:00Z,29.6350,-93.6417,2.0,272.9967757,22.00007727,-99999.0,'11111222,11111222,99999999' 
TABS,ioos:station:wmo:42051:1,2017-05-03T15:30:00Z,29.6350,-93.6417,2.0,268.9970076,24.00367472,-99999.0,'11111222,11111222,99999999' 
TABS,ioos:station:wmo:42051:1,2017-05-03T16:00:00Z,29.6350,-93.6417,2.0,260.0120444,26.00408045,-99999.0,'11111222,11111222,99999999' 
TABS,ioos:station:wmo:42051:1,2017-05-03T16:30:00Z,29.6350,-93.6417,2.0,264.006184,24.99663377,-99999.0,'11111222,11111222,99999999' 
TABS,ioos:station:wmo:42051:1,2017-05-03T17:00:00Z,29.6350,-93.6417,2.0,253.998922,37.00357956,-99999.0,'11111222,11111222,99999999' 
TABS,ioos:station:wmo:42051:1,2017-05-03T18:00:00Z,29.6350,-93.6417,2.0,245.6816177,35.01691734,-99999.0,'11111222,11111222,99999999' 
TABS,ioos:station:wmo:42051:1,2017-05-03T18:30:00Z,29.6350,-93.6417,2.0,245.2649404,29.68329497,-99999.0,'11111222,11111222,99999999' 
TABS,ioos:station:wmo:42051:1,2017-05-03T19:00:00Z,29.6350,-93.6417,2.0,249.4347013,30.20480922,-99999.0,'11111222,11111222,99999999' 
TABS,ioos:station:wmo:42051:1,2017-05-04T01:30:00Z,29.6350,-93.6417,2.0,96.023979,10.00524862,-99999.0,'11111222,11111222,99999999' 
TABS,ioos:station:wmo:42051:1,2017-05-04T06:30:00Z,29.6350,-93.6417,2.0,227.0007968,31.99488084,-99999.0,'11111222,11111222,99999999' 
TABS,ioos:station:wmo:42051:1,2017-05-04T07:00:00Z,29.6350,-93.6417,2.0,226.9889992,32.99934848,-99999.0,'11111222,11111222,99999999' 
TABS,ioos:station:wmo:42051:1,2017-05-04T07:30:00Z,29.6350,-93.6417,2.0,224.9996843,37.99991842,-99999.0,'11111222,11111222,99999999' 
TABS,ioos:station:wmo:42051:1,2017-05-04T08:00:00Z,29.6350,-93.6417,2.0,253.9922122,32.99952121,-99999.0,'11111222,11111222,99999999' 
TABS,ioos:station:wmo:42051:1,2017-05-04T08:30:00Z,29.6350,-93.6417,2.0,246.0054161,33.00180147,-99999.0,'11111222,11111222,99999999' 
TABS,ioos:station:wmo:42051:1,2017-05-04T09:00:00Z,29.6350,-93.6417,2.0,227.9990802,35.00023571,-99999.0,'11111222,11111222,99999999' 
TABS,ioos:station:wmo:42051:1,2017-05-04T09:30:00Z,29.6350,-93.6417,2.0,239.9973728,36.99745397,-99999.0,'11111222,11111222,99999999' 
TABS,ioos:station:wmo:42051:1,2017-05-04T10:00:00Z,29.6350,-93.6417,2.0,237.0067828,30.99894192,-99999.0,'11111222,11111222,99999999' 
TABS,ioos:station:wmo:42051:1,2017-05-04T10:30:00Z,29.6350,-93.6417,2.0,244.9924343,25.00400968,-99999.0,'11111222,11111222,99999999' 
TABS,ioos:station:wmo:42051:1,2017-05-04T11:00:00Z,29.6350,-93.6417,2.0,224.9996843,22.99511252,-99999.0,'11111222,11111222,99999999' 
TABS,ioos:station:wmo:42051:1,2017-05-04T11:30:00Z,29.6350,-93.6417,2.0,270.0004209,15.0,-99999.0,'11111222,11111222,99999999' 
TABS,ioos:station:wmo:42051:1,2017-05-04T12:00:00Z,29.6350,-93.6417,2.0,270.0004209,12.0,-99999.0,'11111222,11111222,99999999' 
TABS,ioos:station:wmo:42051:1,2017-05-04T12:30:00Z,29.6350,-93.6417,2.0,242.0009395,37.00061891,-99999.0,'11111222,11111222,99999999' 
TABS,ioos:station:wmo:42051:1,2017-05-04T13:00:00Z,29.6350,-93.6417,2.0,254.000976,33.99675426,-99999.0,'11111222,11111222,99999999' 
TABS,ioos:station:wmo:42051:1,2017-05-04T13:30:00Z,29.6350,-93.6417,2.0,241.9970305,41.00003049,-99999.0,'11111222,11111222,99999999' 
TABS,ioos:station:wmo:42051:1,2017-05-04T14:00:00Z,29.6350,-93.6417,2.0,239.9977023,46.99723396,-99999.0,'11111222,11111222,99999999' 
TABS,ioos:station:wmo:42051:1,2017-05-04T14:30:00Z,29.6350,-93.6417,2.0,256.9965903,45.99950978,-99999.0,'11111222,11111222,99999999' 
TABS,ioos:station:wmo:42051:1,2017-05-04T15:00:00Z,29.6350,-93.6417,2.0,254.9969496,42.99555558,-99999.0,'11111222,11111222,99999999' 
TABS,ioos:station:wmo:42051:1,2017-05-04T15:30:00Z,29.6350,-93.6417,2.0,251.9977855,40.99693891,-99999.0,'11111222,11111222,99999999' 
TABS,ioos:station:wmo:42051:1,2017-05-04T16:00:00Z,29.6350,-93.6417,2.0,259.9968636,37.99758413,-99999.0,'11111222,11111222,99999999' 
TABS,ioos:station:wmo:42051:1,2017-05-04T16:30:00Z,29.6350,-93.6417,2.0,254.9943768,35.99743463,-99999.0,'11111222,11111222,99999999' 
TABS,ioos:station:wmo:42051:1,2017-05-04T17:00:00Z,29.6350,-93.6417,2.0,239.9955506,33.99578797,-99999.0,'11111222,11111222,99999999' 
TABS,ioos:station:wmo:42051:1,2017-05-04T17:30:00Z,29.6350,-93.6417,2.0,234.0083994,20.99846899,-99999.0,'11111222,11111222,99999999' 
TABS,ioos:station:wmo:42051:1,2017-05-04T18:00:00Z,29.6350,-93.6417,2.0,238.9838763,17.00066175,-99999.0,'11111222,11111222,99999999' 
TABS,ioos:station:wmo:42051:1,2017-05-04T18:30:00Z,29.6350,-93.6417,2.0,223.9975925,19.00286557,-99999.0,'11111222,11111222,99999999' 
TABS,ioos:station:wmo:42051:1,2017-05-04T19:00:00Z,29.6350,-93.6417,2.0,237.0135442,13.99614233,-99999.0,'11111222,11111222,99999999' 
TABS,ioos:station:wmo:42051:1,2017-05-04T19:30:00Z,29.6350,-93.6417,2.0,233.0008688,16.00204049,-99999.0,'11111222,11111222,99999999' 
TABS,ioos:station:wmo:42051:1,2017-05-04T20:00:00Z,29.6350,-93.6417,2.0,236.0050404,12.00110828,-99999.0,'11111222,11111222,99999999' 
TABS,ioos:station:wmo:42051:1,2017-05-04T20:30:00Z,29.6350,-93.6417,2.0,244.9728502,6.996942189,-99999.0,'11133222,11111222,99999999' 
TABS,ioos:station:wmo:42051:1,2017-05-04T21:00:00Z,29.6350,-93.6417,2.0,245.034611,4.004122875,-99999.0,'11133222,11111222,99999999' 
TABS,ioos:station:wmo:42051:1,2017-05-04T21:30:00Z,29.6350,-93.6417,2.0,206.9811175,16.00172491,-99999.0,'11111222,11111222,99999999' 
TABS,ioos:station:wmo:42051:1,2017-05-04T22:00:00Z,29.6350,-93.6417,2.0,224.9996843,14.00071427,-99999.0,'11111222,11111222,99999999' 
TABS,ioos:station:wmo:42051:1,2017-05-04T22:30:00Z,29.6350,-93.6417,2.0,270.0004209,11.0,-99999.0,'11111222,11111222,99999999' 
TABS,ioos:station:wmo:42051:1,2017-05-04T23:00:00Z,29.6350,-93.6417,2.0,90.0,18.0,-99999.0,'11111222,11111222,99999999' 
TABS,ioos:station:wmo:42051:1,2017-05-04T23:30:00Z,29.6350,-93.6417,2.0,207.0774776,3.998249617,-99999.0,'11133222,11111222,99999999' 
TABS,ioos:station:wmo:42051:1,2017-05-05T00:00:00Z,29.6350,-93.6417,2.0,207.0774776,3.998249617,-99999.0,'11133222,11111222,99999999' 
TABS,ioos:station:wmo:42051:1,2017-05-05T00:30:00Z,29.6350,-93.6417,2.0,301.99561,6.00170809,-99999.0,'11133222,11111222,99999999' 
TABS,ioos:station:wmo:42051:1,2017-05-05T01:00:00Z,29.6350,-93.6417,2.0,200.0045975,9.003221646,-99999.0,'11133222,11111222,99999999' 
TABS,ioos:station:wmo:42051:1,2017-05-05T01:30:00Z,29.6350,-93.6417,2.0,224.9996843,5.996265504,-99999.0,'11133222,11111222,99999999' 
TABS,ioos:station:wmo:42051:1,2017-05-05T02:00:00Z,29.6350,-93.6417,2.0,242.0249146,9.998249847,-99999.0,'11133222,11111222,99999999' 
TABS,ioos:station:wmo:42051:1,2017-05-05T02:30:00Z,29.6350,-93.6417,2.0,227.9982728,15.0041361,-99999.0,'11111222,11111222,99999999' 
TABS,ioos:station:wmo:42051:1,2017-05-05T03:00:00Z,29.6350,-93.6417,2.0,254.9910649,11.00542593,-99999.0,'11111222,11111222,99999999' 
TABS,ioos:station:wmo:42051:1,2017-05-05T03:30:00Z,29.6350,-93.6417,2.0,270.0004209,9.0,-99999.0,'11133222,11111222,99999999' 
TABS,ioos:station:wmo:42051:1,2017-05-05T04:00:00Z,29.6350,-93.6417,2.0,231.037837,7.999331222,-99999.0,'11133222,11111222,99999999' 